Temperature
19 19 19 19 21 23 23 24 24 24 24 23 23 24 24 23 23 21 18 18 18 18 18 18 18 18 18 18 18 18 18 18 18 18 18 18 18 18 18 18 18 18 18 18 18 18 18 18 18
19 19 19 20 23 24 24 24 24 24 23 22 22 23 23 22 20 19 18 18 18 18 18 17 18 18 18 18 18 18 18 18 18 18 18 18 18 18 18 18 18 18 18 18 18 18 18 18 18
19 19 20 22 23 24 24 24 24 23 22 23 23 22 22 21 19 19 18 18 18 18 17 17 18 18 18 18 17 17 17 18 18 18 18 18 18 18 18 18 18 18 18 18 18 18 18 18 18
19 19 21 23 24 24 24 24 24 23 23 22 23 22 21 19 19 18 18 18 18 17 17 17 18 18 17 17 17 17 17 17 17 17 17 17 17 17 17 17 17 18 18 18 18 18 18 18 18
19 21 23 24 24 24 24 24 24 24 24 23 23 22 21 18 18 18 18 17 18 17 17 17 17 17 17 17 17 17 17 17 17 17 17 17 17 17 17 17 17 17 18 18 18 18 18 18 18
20 22 23 24 24 24 24 23 24 24 23 22 22 22 20 18 18 18 18 17 17 17 17 17 17 17 17 17 17 17 17 17 17 17 17 17 17 17 17 17 17 17 17 17 17 17 17 17 18
21 23 24 24 24 24 24 23 24 24 24 23 22 22 20 19 18 18 18 18 17 17 17 17 17 17 17 17 17 16 16 16 16 16 16 16 17 17 17 17 17 17 17 17 17 17 17 17 17
21 23 24 24 24 24 24 23 23 23 23 22 22 23 21 19 18 18 18 18 17 17 17 17 17 16 16 16 16 16 16 16 16 16 16 16 16 16 16 16 16 16 17 17 17 17 17 17 17
20 23 24 24 24 24 24 23 23 22 22 21 21 21 21 19 18 18 18 18 18 17 17 17 16 16 16 16 16 16 16 16 15 15 15 15 15 15 16 16 16 16 16 17 17 17 17 17 17
22 23 24 24 25 24 24 24 23 23 23 22 21 20 19 19 19 19 19 18 18 17 17 17 16 16 16 16 15 15 15 15 15 15 15 15 15 15 15 15 16 16 16 16 16 17 17 17 16
23 24 24 24 23 24 23 23 23 23 23 23 22 21 19 19 19 19 19 18 18 17 17 16 16 16 16 15 15 15 15 15 15 14 14 14 14 15 15 15 15 15 15 15 16 16 16 16 16
24 24 24 24 23 23 23 23 23 23 23 23 22 21 20 20 19 19 19 18 18 17 16 16 16 16 16 15 15 15 15 15 14 14 14 14 14 14 14 14 14 15 15 15 15 15 16 16 16
24 24 23 22 22 22 23 23 23 23 22 21 21 20 20 20 20 19 19 18 18 17 16 16 15 15 15 15 14 15 14 14 14 14 14 14 14 14 14 14 14 14 14 15 15 15 15 16 16
24 23 23 22 22 22 23 23 23 23 21 21 21 21 20 20 20 19 19 18 18 17 16 16 15 15 15 15 15 14 14 14 14 14 14 14 14 14 14 14 14 14 14 14 14 15 15 15 16
23 23 23 23 23 23 23 23 24 23 22 22 21 21 20 20 19 19 19 18 18 17 16 16 15 15 15 14 14 14 14 14 14 13 13 13 13 13 13 13 13 14 14 14 14 14 15 15 15
24 24 24 24 23 23 23 24 25 22 22 22 22 21 20 20 19 19 18 18 17 17 16 15 15 15 14 14 14 14 14 13 13 13 13 13 13 13 13 13 13 13 13 14 14 14 14 15 15
24 24 24 24 24 24 23 24 24 22 22 22 22 21 21 20 19 18 18 17 17 16 16 15 15 14 14 14 14 13 13 13 13 13 13 13 13 13 13 13 13 13 13 13 13 14 14 14 14
24 24 25 25 24 24 23 24 25 23 22 23 22 22 21 21 20 19 18 17 17 16 16 15 15 14 14 14 13 13 13 13 13 13 13 13 13 12 13 13 13 13 13 13 13 13 13 14 14
25 25 25 25 24 24 24 25 25 24 23 23 23 23 22 21 20 18 17 17 17 16 16 15 15 14 14 14 13 13 13 13 13 13 12 12 12 12 12 12 12 12 13 13 13 13 13 14 14
24 24 25 24 24 24 24 25 25 24 23 23 23 23 22 21 20 18 17 17 17 16 15 15 15 14 14 13 13 13 13 13 13 12 12 12 12 12 12 12 12 12 12 12 12 13 13 13 14
24 24 25 24 23 23 24 25 25 24 23 22 22 22 22 21 20 19 18 17 16 16 15 15 14 14 13 13 13 13 13 13 13 13 12 12 12 12 12 12 12 12 12 12 12 13 13 13 13
24 24 24 24 24 24 24 24 26 25 24 24 23 22 21 20 20 19 18 17 17 16 15 15 14 14 13 13 13 13 13 13 13 12 12 12 12 12 12 12 12 12 12 12 12 12 13 13 13
24 23 23 23 24 24 24 24 26 25 25 25 24 22 21 20 20 19 18 17 17 16 15 15 14 14 13 13 13 13 13 13 12 12 12 12 12 12 12 12 12 12 12 12 12 12 12 13 13
23 23 23 23 24 24 24 24 25 26 26 25 24 22 21 20 19 19 18 17 16 16 15 15 14 14 13 13 13 13 13 12 12 12 12 12 12 12 12 12 12 12 12 12 12 12 12 12 13
23 24 23 23 24 24 24 24 25 26 25 24 24 23 22 20 19 19 18 17 16 16 15 15 14 14 13 13 13 13 13 12 12 12 12 12 12 12 12 12 12 12 12 12 12 12 12 12 13
24 25 24 23 24 25 24 24 26 25 23 22 22 22 21 20 19 18 18 17 16 16 15 15 14 14 14 13 13 13 13 13 13 12 12 12 12 12 12 12 12 12 12 12 12 12 12 12 13
24 24 25 25 24 24 25 25 26 24 23 23 22 22 21 20 19 19 18 17 16 16 15 15 14 14 14 13 13 13 13 13 13 12 12 12 12 12 12 12 12 12 12 12 12 12 12 12 13
24 25 24 24 23 24 24 25 25 25 25 24 24 23 22 20 19 19 18 17 17 16 15 15 14 14 14 14 13 13 13 13 13 13 12 12 12 12 12 12 12 12 12 12 12 12 12 12 12
23 24 24 24 24 24 24 25 26 25 25 25 24 23 22 21 20 19 18 17 17 16 16 15 15 14 14 14 13 13 13 13 13 13 13 12 12 12 12 12 12 12 12 12 12 12 12 12 12
24 25 25 24 24 24 24 25 25 25 24 24 24 23 22 21 20 19 18 17 17 16 16 15 15 14 14 14 13 13 13 13 13 13 13 12 12 12 12 12 12 12 12 12 12 12 12 12 12
Wind_Speed
10 7 3 2 3 2 1 2 2 3 3 4 4 2 3 4 4 3 4 5 6 7 7 7 5 4 3 3 2 2 2 2 2 2 2 2 3 3 4 4 4 4 4 4 3 3 2 1 1
9 5 3 3 3 1 2 2 3 4 4 4 3 3 3 5 5 5 5 6 7 7 7 6 5 4 3 3 3 3 3 3 3 3 3 4 4 5 5 5 5 6 6 6 5 4 4 3 2
8 4 3 2 2 0 2 3 4 5 4 2 2 3 3 4 4 4 6 8 8 7 6 7 5 4 3 3 3 3 4 4 4 4 4 5 5 6 6 7 7 7 8 8 7 7 6 5 4
4 3 3 3 1 1 1 3 4 5 4 2 2 4 4 4 3 6 8 8 8 7 6 7 5 4 4 3 3 3 4 4 5 5 5 6 5 5 6 7 7 7 8 9 9 8 7 6 5
3 3 3 2 1 2 1 2 2 2 2 3 2 4 5 5 6 8 8 7 7 7 6 7 6 5 4 4 4 4 4 5 5 5 6 6 6 6 6 7 8 8 8 9 9 8 8 8 7
3 3 3 1 2 2 2 3 2 2 3 4 3 4 5 6 7 8 7 7 6 6 5 5 6 5 5 5 5 5 5 5 5 5 5 6 6 7 7 8 8 8 9 8 8 8 8 8 8
3 2 2 1 1 2 2 3 2 2 3 3 2 3 5 7 7 7 7 6 6 5 4 3 4 3 3 4 5 6 6 6 5 5 5 5 6 6 7 7 7 8 8 8 8 8 8 8 8
3 3 2 1 2 2 4 4 2 2 3 3 2 2 5 8 9 8 7 6 5 4 3 3 3 3 3 2 4 4 5 5 5 5 5 5 6 5 5 6 5 6 6 7 7 7 7 8 8
3 3 3 2 2 2 5 4 3 2 4 4 2 2 6 11 10 8 6 5 4 2 2 2 2 3 3 4 3 3 2 3 5 4 2 6 6 6 5 5 5 6 7 7 6 6 7 8 8
4 4 2 1 2 2 5 4 5 5 4 4 5 6 9 11 10 8 6 4 3 1 1 2 2 3 3 4 4 4 4 4 5 6 5 6 6 5 6 3 4 5 6 7 6 6 7 8 7
4 4 1 1 2 3 5 5 5 4 3 4 6 9 11 10 9 7 5 3 1 1 1 2 3 3 4 3 4 4 5 4 5 5 6 6 6 5 5 5 4 5 6 6 5 6 6 6 6
5 4 3 2 3 4 5 5 5 5 1 3 6 10 11 10 9 7 5 3 1 0 1 2 3 4 4 5 4 5 5 4 5 5 7 6 4 5 5 4 4 4 4 4 5 4 6 6 6
6 4 2 2 4 4 4 5 3 4 3 6 9 10 10 9 7 6 4 3 2 1 0 2 3 4 4 4 4 5 5 5 5 5 6 6 5 5 5 4 4 5 4 4 4 5 5 6 6
5 4 3 3 4 5 6 5 4 4 7 9 10 10 9 8 7 6 5 3 2 0 1 2 3 4 5 5 5 5 5 5 6 5 6 6 5 5 5 5 4 5 5 4 5 5 5 5 5
4 5 4 5 5 4 5 6 7 6 9 10 10 10 9 8 7 6 5 3 1 0 1 2 3 4 5 5 5 5 5 5 5 5 7 7 6 6 5 5 5 5 5 5 5 5 4 5 5
6 6 6 5 5 5 6 5 4 7 10 10 10 10 9 8 8 6 5 4 2 1 1 2 2 4 5 5 5 4 5 5 5 5 6 6 6 6 6 5 5 5 5 4 4 4 4 4 5
7 7 6 5 6 5 7 5 4 7 10 10 10 10 10 9 8 7 6 4 3 1 0 1 2 4 4 4 4 4 4 4 5 5 5 6 6 6 5 5 5 6 4 4 4 3 4 4 4
7 7 5 4 5 8 8 8 5 7 9 9 10 10 10 10 8 7 6 5 4 2 1 1 2 3 4 3 4 3 4 4 4 4 5 6 6 6 6 5 5 5 4 4 4 4 3 4 4
5 6 5 3 3 6 9 9 7 7 9 10 10 10 10 9 8 7 7 6 5 3 1 0 2 3 3 4 4 4 4 5 4 4 5 6 6 6 5 5 4 4 4 4 5 4 4 3 3
7 8 6 2 2 5 6 8 7 7 10 10 10 10 10 9 9 8 8 7 5 3 2 1 1 2 3 3 4 4 5 5 4 4 5 6 6 6 5 5 4 4 4 4 4 3 3 3 2
9 8 5 3 1 3 5 7 6 5 6 8 9 9 9 10 10 9 9 7 6 4 2 1 1 1 2 3 3 4 3 3 3 5 5 5 6 5 5 5 5 4 4 3 4 4 3 3 3
7 4 4 4 5 3 3 5 3 5 6 8 9 10 10 10 10 9 9 8 6 4 3 2 1 1 2 3 3 5 5 5 5 5 5 5 5 5 4 4 4 4 4 3 3 3 3 3 3
3 2 3 5 6 6 5 6 3 4 6 7 8 9 10 10 10 10 9 8 6 5 3 3 2 1 2 3 3 4 4 4 4 5 5 5 4 4 4 5 4 4 4 3 3 3 3 3 3
6 5 3 4 5 6 4 6 3 3 4 5 6 8 9 10 10 9 8 7 6 5 4 3 2 1 1 3 3 4 4 5 6 6 6 5 4 4 5 5 4 4 3 3 3 3 3 3 3
6 5 4 4 5 3 2 5 4 1 1 3 4 6 9 10 10 10 10 8 7 6 5 4 3 2 2 3 3 3 4 5 5 6 5 5 5 5 6 5 4 4 4 3 3 3 3 3 4
7 6 4 3 3 1 3 5 1 1 1 2 4 5 8 10 10 10 9 8 7 7 6 5 4 3 2 3 3 3 3 3 4 4 5 5 5 5 6 5 4 4 4 3 3 3 2 2 3
5 5 4 5 4 5 3 3 3 3 4 5 6 7 8 10 10 10 9 9 8 7 6 5 4 3 3 3 2 3 3 3 4 4 4 4 5 5 5 5 4 3 3 3 3 2 2 2 2
2 3 4 4 4 4 3 4 2 3 6 7 8 8 8 9 10 10 9 9 8 7 7 6 5 4 3 3 2 2 3 3 4 4 4 5 5 5 5 5 4 3 3 3 2 2 1 1 1
5 5 4 4 4 4 4 2 1 2 3 6 7 8 8 9 9 10 9 9 8 8 7 6 5 4 3 3 2 2 2 3 3 3 4 4 4 4 5 4 4 4 3 2 2 2 1 1 0
5 6 7 6 4 5 6 4 2 3 3 5 6 7 7 8 8 9 9 9 9 9 8 7 6 5 4 3 3 2 2 2 3 3 4 4 4 4 4 4 4 3 3 2 2 2 2 1 0
Wind_Direction
159 158 174 217 227 216 112 74 45 70 71 63 59 56 44 36 16 52 79 95 113 123 124 128 123 115 109 91 68 45 14 342 329 305 270 263 262 264 262 264 266 270 271 271 272 281 283 295 303
157 165 209 238 247 184 105 93 76 65 91 96 70 58 65 67 55 82 99 101 113 112 115 109 105 95 84 70 54 33 14 355 340 327 303 281 276 274 273 273 275 278 277 270 264 263 268 270 272
155 201 237 239 244 11 87 94 92 98 101 92 77 54 45 61 66 86 100 115 114 108 104 94 86 75 68 59 41 26 11 0 349 336 320 301 288 283 279 275 274 278 282 276 264 260 261 262 261
175 212 231 243 206 62 64 104 124 130 111 81 94 92 79 55 58 96 112 118 113 108 103 92 74 65 52 31 15 12 0 357 352 342 331 320 308 298 293 286 279 273 273 275 272 262 258 258 258
210 239 234 214 113 97 112 116 143 137 114 107 105 95 92 86 97 111 117 114 112 108 99 92 69 57 45 31 21 13 2 353 345 339 339 337 328 316 305 297 290 281 276 277 278 270 261 256 258
217 243 247 197 123 127 137 156 172 129 116 123 123 109 99 117 125 125 122 119 111 106 100 92 87 66 48 35 27 14 3 351 347 343 339 338 333 324 311 300 296 291 286 282 280 275 265 254 252
246 261 274 255 155 158 154 166 181 149 134 122 131 117 122 138 135 133 129 123 112 103 91 81 79 87 81 44 26 12 4 357 348 342 334 330 325 318 308 301 300 297 295 287 279 276 272 260 249
248 253 244 232 215 158 148 159 152 165 122 116 160 131 134 146 146 140 134 128 117 104 88 68 56 22 3 17 55 14 3 351 339 331 329 317 296 290 294 286 297 299 300 300 292 279 275 265 251
222 239 239 219 233 154 162 169 147 147 144 142 139 89 115 139 150 152 149 144 130 103 75 55 26 14 357 345 17 342 337 339 300 285 292 287 290 297 290 312 314 306 302 300 301 288 274 269 247
214 240 230 194 219 172 175 182 164 168 168 162 146 135 137 152 162 164 164 159 148 116 68 21 4 357 348 344 337 327 326 332 318 320 318 306 302 296 298 288 281 285 288 282 278 282 265 257 252
223 249 244 234 228 192 181 178 181 190 190 185 168 157 158 164 170 173 168 155 138 114 47 352 348 348 335 334 332 330 325 325 318 326 321 311 304 297 293 295 279 276 270 278 267 259 254 252 253
223 236 245 226 194 200 189 176 188 215 193 142 156 157 164 173 175 178 174 162 158 145 348 337 334 332 332 333 333 321 324 326 326 326 322 318 313 306 309 299 306 299 288 281 273 267 257 255 250
225 224 206 202 193 196 190 196 210 210 179 152 152 162 172 175 177 177 175 175 186 219 315 327 324 333 334 333 323 319 325 324 326 327 318 320 311 305 305 298 303 298 295 279 275 268 262 257 251
206 198 192 186 186 187 198 208 219 205 174 166 169 174 178 181 186 184 189 195 201 230 352 346 333 337 333 330 328 330 327 319 317 322 320 317 315 308 306 299 300 298 295 293 280 270 268 263 253
177 193 195 199 194 185 202 221 219 193 177 179 181 180 181 187 192 199 193 198 200 190 359 358 343 339 338 336 336 328 321 319 322 324 320 318 315 309 307 305 302 299 297 290 281 277 268 262 255
191 210 216 195 194 184 213 236 180 177 188 192 190 185 189 193 200 199 193 195 189 210 358 23 349 340 344 342 334 328 326 325 320 320 318 316 315 313 310 305 303 305 299 291 280 274 268 259 256
206 223 223 198 195 195 220 247 164 177 197 200 197 196 196 196 200 197 195 192 186 186 1 10 5 348 349 344 331 330 332 328 324 325 326 323 319 315 308 302 302 303 297 291 287 280 280 274 265
214 226 229 226 189 209 228 244 214 190 207 213 207 205 203 203 201 192 187 184 182 179 177 5 9 347 346 335 332 340 341 336 335 336 334 328 320 317 313 301 301 302 294 288 285 285 277 279 270
237 240 248 253 191 220 237 249 239 214 215 221 216 211 208 206 192 183 183 184 185 180 197 5 339 357 348 342 335 334 339 338 340 342 340 331 323 321 316 307 304 299 295 291 287 281 275 272 270
234 244 250 232 181 237 262 264 250 229 225 225 223 213 207 200 191 184 187 189 194 189 202 243 323 354 354 351 334 326 323 325 335 334 339 340 332 326 320 314 307 300 292 284 285 279 279 276 254
232 247 257 260 213 222 281 262 221 200 216 218 221 217 209 203 200 188 188 190 191 196 195 222 297 340 350 341 333 326 325 319 335 343 345 344 336 328 323 316 310 304 295 289 281 274 269 278 264
231 240 253 250 251 249 260 282 220 198 210 208 207 206 205 199 198 191 188 191 192 192 189 211 232 309 333 328 333 338 337 341 344 337 338 333 335 335 330 318 308 303 299 293 281 277 269 268 265
217 154 218 240 256 261 234 265 232 187 209 199 198 201 201 195 194 190 189 189 189 184 189 208 223 266 315 325 332 319 332 338 334 334 337 337 343 343 340 325 314 307 301 299 294 287 272 256 253
151 153 165 213 243 252 236 252 254 187 201 184 183 190 192 190 189 187 183 183 184 181 187 201 216 242 290 303 311 320 332 329 334 340 342 343 346 343 347 335 324 319 311 306 298 277 262 259 248
197 217 224 223 225 239 157 250 262 111 210 218 196 186 184 184 186 186 185 185 186 188 192 198 210 234 263 288 305 321 326 323 331 336 339 337 341 343 346 336 333 332 321 313 299 276 266 251 243
205 230 257 273 269 264 199 246 260 118 228 228 210 184 180 184 187 189 189 187 189 192 193 200 210 230 254 277 299 315 327 322 336 336 332 332 335 339 340 335 336 334 327 316 305 289 268 259 251
192 218 280 285 288 278 242 256 261 185 205 194 184 181 186 187 188 190 189 189 191 192 194 201 211 227 246 261 279 304 320 326 332 332 334 334 333 337 340 342 340 343 338 326 313 303 291 268 260
291 185 216 254 279 275 271 267 275 198 200 194 195 195 191 190 191 191 189 190 191 191 193 197 210 224 238 249 261 282 300 315 323 329 335 334 335 340 339 341 342 346 340 328 322 318 324 282 257
177 198 223 244 270 285 297 309 19 269 219 207 206 202 196 194 195 192 189 188 188 188 190 194 203 216 224 234 246 260 284 307 316 326 337 333 331 335 340 343 345 346 344 340 333 332 345 313 290
243 239 229 248 242 256 284 291 120 241 242 224 217 206 200 197 194 191 187 184 186 190 192 196 201 207 212 222 238 257 283 294 306 321 330 332 332 333 338 341 344 347 346 343 338 340 338 337 327
Height
1521 1521 1522 1524 1523 1520 1518 1514 1511 1512 1513 1516 1516 1515 1515 1516 1519 1526 1527 1525 1526 1528 1529 1530 1530 1531 1532 1533 1533 1534 1534 1534 1534 1534 1534 1534 1533 1533 1533 1533 1533 1533 1533 1533 1532 1532 1532 1531 1531
1521 1522 1524 1523 1519 1520 1518 1512 1513 1514 1516 1518 1518 1518 1517 1520 1523 1525 1525 1526 1527 1528 1530 1531 1531 1532 1532 1532 1533 1533 1533 1533 1533 1533 1533 1532 1532 1532 1532 1532 1532 1532 1532 1532 1532 1531 1531 1531 1530
1521 1522 1524 1519 1516 1517 1517 1513 1514 1516 1518 1518 1519 1520 1520 1523 1525 1526 1527 1527 1528 1529 1530 1531 1531 1532 1532 1532 1532 1532 1532 1532 1532 1532 1531 1531 1531 1531 1531 1531 1531 1531 1531 1531 1531 1530 1530 1530 1530
1522 1523 1522 1518 1517 1514 1513 1513 1515 1516 1518 1520 1520 1521 1524 1526 1527 1527 1527 1528 1529 1530 1531 1531 1531 1531 1532 1531 1531 1531 1531 1530 1530 1530 1530 1529 1529 1529 1529 1529 1529 1529 1529 1529 1529 1529 1529 1529 1529
1522 1522 1518 1516 1514 1513 1513 1514 1515 1515 1517 1520 1520 1521 1525 1527 1527 1528 1529 1530 1531 1531 1531 1531 1531 1531 1531 1530 1530 1530 1529 1529 1529 1528 1528 1528 1527 1527 1527 1527 1527 1527 1527 1527 1527 1528 1528 1528 1528
1522 1519 1518 1517 1515 1513 1514 1515 1516 1516 1518 1520 1521 1522 1526 1528 1528 1529 1530 1531 1531 1532 1532 1531 1531 1531 1530 1530 1529 1529 1528 1528 1527 1526 1526 1525 1525 1525 1525 1525 1524 1525 1525 1525 1525 1525 1526 1526 1526
1521 1517 1516 1514 1516 1514 1514 1516 1516 1517 1518 1521 1522 1523 1526 1528 1529 1530 1531 1531 1532 1532 1532 1532 1532 1531 1530 1529 1529 1528 1527 1526 1525 1525 1524 1523 1523 1522 1522 1522 1522 1522 1522 1522 1523 1523 1523 1524 1524
1519 1517 1515 1514 1515 1514 1515 1516 1517 1518 1519 1522 1523 1522 1525 1529 1529 1530 1531 1532 1532 1532 1532 1532 1531 1531 1530 1530 1528 1527 1526 1525 1524 1523 1522 1521 1520 1520 1519 1519 1519 1519 1519 1520 1520 1520 1521 1522 1522
1518 1518 1515 1513 1513 1513 1515 1516 1518 1520 1520 1522 1523 1524 1526 1528 1529 1531 1532 1532 1533 1533 1532 1532 1531 1530 1529 1529 1527 1526 1525 1523 1522 1522 1520 1519 1519 1519 1518 1517 1516 1516 1516 1517 1517 1518 1518 1519 1520
1517 1516 1511 1511 1511 1512 1514 1516 1518 1519 1520 1522 1523 1525 1526 1527 1529 1531 1532 1533 1533 1533 1532 1532 1531 1530 1529 1528 1527 1525 1524 1523 1522 1521 1519 1518 1517 1516 1515 1514 1514 1513 1513 1514 1514 1515 1516 1517 1518
1514 1511 1510 1511 1512 1513 1514 1516 1517 1517 1518 1520 1522 1524 1526 1528 1530 1531 1532 1532 1532 1532 1532 1531 1530 1529 1528 1527 1526 1525 1523 1521 1520 1519 1518 1516 1516 1515 1514 1513 1512 1512 1511 1512 1512 1512 1513 1514 1515
1512 1511 1511 1512 1513 1514 1514 1515 1517 1517 1518 1519 1521 1523 1525 1527 1529 1530 1531 1532 1532 1531 1531 1530 1529 1528 1527 1526 1525 1523 1522 1521 1519 1518 1516 1515 1514 1513 1512 1511 1510 1510 1509 1509 1509 1510 1511 1512 1513
1510 1510 1512 1512 1513 1514 1515 1515 1516 1517 1518 1519 1521 1523 1525 1527 1528 1530 1530 1531 1531 1531 1530 1529 1528 1527 1526 1525 1523 1522 1520 1519 1518 1515 1515 1513 1512 1511 1510 1509 1508 1508 1507 1507 1507 1508 1508 1509 1510
1509 1510 1511 1512 1512 1513 1514 1514 1516 1515 1517 1519 1520 1522 1524 1526 1527 1529 1529 1530 1530 1530 1529 1528 1527 1526 1525 1523 1522 1521 1519 1517 1516 1514 1513 1512 1511 1509 1508 1508 1506 1506 1505 1505 1505 1505 1505 1506 1507
1510 1510 1510 1511 1511 1512 1514 1513 1511 1513 1516 1517 1519 1521 1523 1525 1526 1527 1528 1529 1529 1529 1528 1527 1526 1524 1523 1522 1520 1519 1517 1516 1515 1513 1512 1510 1509 1508 1506 1505 1505 1504 1503 1503 1502 1503 1503 1503 1504
1507 1508 1510 1508 1510 1511 1514 1511 1508 1512 1514 1516 1517 1520 1522 1523 1525 1526 1527 1528 1528 1528 1527 1526 1525 1523 1522 1521 1519 1518 1516 1515 1513 1512 1510 1509 1507 1506 1505 1504 1503 1502 1501 1501 1500 1500 1501 1501 1502
1506 1508 1507 1507 1507 1508 1510 1508 1507 1510 1512 1514 1516 1517 1520 1522 1523 1524 1525 1526 1526 1526 1526 1525 1524 1522 1521 1519 1518 1516 1515 1513 1512 1510 1509 1507 1506 1504 1503 1502 1501 1500 1499 1499 1499 1499 1499 1499 1499
1507 1504 1504 1504 1504 1507 1507 1505 1505 1508 1510 1511 1513 1515 1517 1519 1521 1523 1523 1524 1524 1525 1525 1524 1523 1521 1520 1519 1518 1516 1514 1513 1511 1509 1507 1506 1504 1503 1501 1500 1499 1498 1498 1497 1497 1497 1497 1497 1497
1500 1502 1503 1502 1503 1505 1504 1502 1501 1504 1507 1508 1509 1511 1514 1517 1519 1521 1521 1522 1523 1523 1523 1523 1522 1521 1519 1518 1517 1515 1514 1512 1510 1508 1506 1504 1503 1501 1500 1499 1498 1496 1496 1495 1495 1495 1495 1495 1496
1501 1502 1501 1501 1503 1503 1501 1499 1497 1500 1503 1504 1506 1508 1511 1514 1517 1518 1520 1521 1522 1522 1522 1522 1521 1520 1518 1517 1516 1514 1512 1511 1509 1507 1505 1503 1502 1500 1499 1498 1496 1495 1494 1494 1493 1493 1494 1494 1495
1501 1501 1500 1503 1503 1503 1502 1498 1494 1497 1501 1503 1504 1506 1509 1511 1514 1516 1518 1519 1520 1521 1520 1520 1520 1519 1517 1516 1515 1513 1512 1510 1509 1507 1504 1502 1500 1498 1497 1496 1495 1494 1493 1492 1492 1492 1492 1493 1493
1501 1498 1501 1502 1505 1503 1504 1504 1492 1493 1496 1498 1501 1504 1506 1509 1512 1514 1516 1517 1518 1519 1519 1519 1518 1518 1517 1515 1514 1513 1512 1510 1508 1506 1504 1501 1499 1497 1495 1494 1493 1492 1492 1491 1491 1491 1491 1491 1492
1498 1500 1501 1502 1502 1503 1500 1503 1492 1491 1492 1493 1497 1500 1504 1506 1509 1512 1514 1515 1516 1517 1517 1517 1517 1517 1516 1515 1513 1512 1511 1509 1507 1505 1503 1501 1499 1497 1495 1493 1492 1491 1491 1490 1489 1489 1489 1490 1490
1501 1501 1502 1501 1500 1507 1499 1501 1496 1487 1487 1490 1494 1498 1501 1504 1507 1510 1511 1513 1514 1515 1515 1515 1516 1515 1514 1514 1513 1512 1510 1508 1507 1505 1503 1501 1499 1497 1494 1493 1492 1490 1490 1489 1488 1488 1488 1488 1489
1499 1501 1508 1509 1508 1503 1499 1501 1492 1486 1488 1490 1493 1496 1499 1502 1505 1507 1509 1511 1512 1513 1514 1514 1514 1514 1513 1513 1512 1511 1509 1508 1506 1504 1503 1501 1499 1497 1494 1492 1491 1490 1488 1488 1487 1487 1487 1487 1488
1495 1496 1507 1513 1509 1500 1500 1498 1486 1487 1490 1492 1493 1495 1497 1500 1503 1505 1507 1509 1510 1511 1512 1513 1513 1513 1512 1511 1511 1510 1509 1507 1506 1504 1502 1501 1499 1496 1494 1492 1490 1489 1487 1487 1486 1486 1486 1486 1487
1495 1495 1493 1496 1499 1502 1494 1490 1484 1486 1488 1490 1492 1494 1496 1498 1500 1503 1505 1506 1508 1509 1510 1511 1511 1511 1511 1510 1510 1509 1508 1507 1505 1504 1502 1500 1498 1496 1494 1492 1490 1489 1487 1486 1486 1485 1485 1485 1486
1493 1492 1495 1498 1507 1507 1499 1493 1487 1483 1484 1486 1489 1491 1494 1496 1498 1500 1502 1504 1506 1507 1508 1509 1510 1510 1510 1509 1509 1508 1507 1506 1504 1503 1502 1500 1498 1496 1494 1492 1490 1489 1487 1486 1485 1485 1484 1485 1485
1496 1496 1494 1495 1497 1504 1505 1495 1480 1480 1481 1483 1486 1488 1491 1494 1496 1498 1500 1501 1503 1505 1506 1507 1508 1508 1508 1508 1508 1507 1506 1505 1504 1503 1501 1500 1498 1496 1494 1492 1491 1489 1487 1486 1485 1485 1484 1484 1484
1489 1489 1491 1497 1498 1498 1500 1493 1478 1480 1482 1483 1484 1487 1489 1491 1493 1495 1497 1499 1501 1502 1504 1505 1506 1507 1507 1507 1507 1506 1505 1504 1504 1503 1501 1500 1498 1496 1494 1492 1491 1489 1487 1486 1486 1485 1484 1484 1484